EW6790 Weather Reports


time (UTC)temp
F
wind
direction
speed
knots
gust
knots
rain 1hr
in
rain 24hr
in
rain mn
in
humidity
%
barometer
mb
20260502194504 62 275 7.0 13.9 0.00 0.00 0.00 33 1015.5
20260502191503 61 288 8.7 16.5 0.00 0.00 0.00 34 1016.1
20260502190100 61 262 10.4 14.8 0.00 0.00 0.00 32 1016.2
20260502184556 61 265 10.4 14.8 0.00 0.00 0.00 34 1016.6
20260502183154 60 271 5.2 11.3 0.00 0.00 0.00 34 1016.8
20260502181530 59 246 4.3 17.4 0.00 0.00 0.00 34 1017.1
20260502163023 55 269 8.7 19.1 0.00 0.00 0.00 38 1018.6
20260502161600 55 269 7.0 12.2 0.00 0.00 0.00 39 1018.8
20260502151523 53 268 6.1 12.2 0.00 0.00 0.00 40 1019.4
20260502123007 0 0.0 0.0 0.00 0.00 0.00 1019.8
20260502121503 0 0.0 0.0 0.00 0.00 0.00 1019.8
20260502114554 0 0.0 0.0 0.00 0.00 0.00 1019.8
20260502113050 0 0.0 0.0 0.00 0.00 0.00 1019.7
20260502111539 0 0.0 0.0 0.00 0.00 0.00 1019.8
20260502110027 0 0.0 0.0 0.00 0.00 0.00 1019.8
20260502104513 33 232 0.9 2.6 0.00 0.00 0.00 77 1019.9
20260502103007 33 239 1.7 2.6 0.00 0.00 0.00 77 1019.9
20260502101505 33 245 1.7 2.6 0.00 0.00 0.00 76 1019.8
20260502091502 33 240 0.9 1.7 0.00 0.00 0.00 77 1019.8
20260502070051 37 222 0.9 2.6 0.00 0.00 0.00 65 1019.8
20260502064536 37 209 1.7 2.6 0.00 0.00 0.00 65 1019.9
20260502063037 37 227 0.9 0.9 0.00 0.00 0.00 63 1020.0
20260502061531 38 226 0.0 1.7 0.00 0.00 0.00 62 1020.0
20260502060027 39 252 0.9 1.7 0.00 0.00 0.00 58 1020.0
20260502054526 39 255 0.9 2.6 0.00 0.00 0.00 58 1019.9
20260502053023 39 255 0.9 1.7 0.00 0.00 0.00 58 1019.9
20260502051519 40 265 0.9 1.7 0.00 0.00 0.00 57 1019.8
20260502050017 40 265 0.9 1.7 0.00 0.01 0.00 56 1019.6
20260502044559 41 286 0.9 1.7 0.00 0.01 0.00 55 1019.5
20260502043059 42 286 0.0 1.7 0.00 0.01 0.00 53 1019.5
20260502041538 42 286 0.0 1.7 0.00 0.01 0.00 53 1019.6
20260502040036 42 327 0.0 0.9 0.00 0.01 0.00 52 1019.6
20260502034535 42 327 0.0 0.9 0.00 0.01 0.00 51 1019.7
20260502033032 43 327 0.0 0.9 0.00 0.01 0.00 50 1019.7
20260502031529 44 327 0.0 0.9 0.00 0.01 0.00 49 1019.6
20260502030028 44 327 0.0 0.9 0.00 0.01 0.00 49 1019.6
20260502024528 45 327 0.0 1.7 0.00 0.01 0.00 48 1019.4
20260502023031 45 327 0.0 2.6 0.00 0.01 0.00 49 1019.4
20260502021504 45 355 1.7 2.6 0.00 0.01 0.00 48 1019.4
20260502020003 46 340 0.0 0.9 0.00 0.01 0.00 48 1019.2
20260502014559 47 343 0.0 1.7 0.00 0.01 0.00 48 1019.0
20260502013038 47 8 0.0 0.9 0.00 0.01 0.00 47 1019.0
20260502011534 48 8 0.0 0.0 0.00 0.01 0.00 44 1018.8
20260502010015 49 337 0.0 1.7 0.00 0.01 0.00 43 1018.6
20260502004513 49 51 0.0 4.3 0.00 0.01 0.00 43 1018.5
20260502003056 49 337 0.9 3.5 0.00 0.01 0.00 42 1018.4
20260502001553 50 359 0.0 1.7 0.00 0.01 0.00 41 1018.4
20260502000034 52 310 1.7 4.3 0.00 0.01 0.00 39 1018.2
20260501234538 52 314 3.5 9.6 0.00 0.01 0.00 38 1018.1
20260501233015 52 337 1.7 7.8 0.00 0.01 0.00 37 1018.0
20260501231515 53 299 4.3 10.4 0.00 0.01 0.00 36 1018.0
20260501230100 56 279 0.0 5.2 0.00 0.01 0.00 37 1018.0
20260501224603 55 30 0.9 6.1 0.00 0.01 0.00 37 1018.1
20260501223045 54 322 0.0 4.3 0.00 0.01 0.00 37 1018.0
20260501221548 56 48 0.9 5.2 0.00 0.01 0.00 38 1017.9
20260501220017 53 329 0.9 3.5 0.00 0.01 0.00 38 1017.9
20260501214516 54 65 1.7 5.2 0.00 0.01 0.00 37 1018.1
20260501213110 53 350 2.6 9.6 0.00 0.01 0.00 38 1017.9
20260501211610 52 302 0.9 8.7 0.00 0.01 0.00 39 1018.1
20260501210039 53 40 0.9 5.2 0.00 0.01 0.00 38 1018.1
20260501204539 54 21 3.5 6.1 0.00 0.01 0.00 37 1018.0
20260501203021 53 337 1.7 7.8 0.00 0.01 0.00 38 1018.2
20260501201520 55 302 1.7 8.7 0.00 0.01 0.00 39 1018.2
20260501200012 53 307 1.7 6.1 0.00 0.01 0.00 40 1018.1